Lapse_Rate
5.8 5.9 5.9 5.9 5.9 6.1 6.2 6.2 6.2 6.2 6.2 6.1 6.1 6.1 6.4 6.9 6.6 6.7 6.5 6.7 6.8 6.8 6.8 6.9 6.9 7.0 7.0 7.0 6.7 6.6 6.2 6.1 5.9 5.8 6.2 6.4 6.6 6.3 6.5 6.9 6.7 7.0 7.0 6.6 6.6
6.0 6.0 6.0 6.0 6.0 6.1 6.1 6.1 6.1 6.1 6.0 5.9 5.9 6.0 6.1 6.6 6.8 6.6 6.7 6.7 6.7 6.8 6.8 6.9 7.0 6.9 6.9 6.9 6.8 6.5 6.3 5.9 5.5 5.4 5.6 6.3 6.3 6.4 6.1 6.3 6.6 6.6 6.8 6.8 6.4
6.0 6.0 6.0 6.0 6.0 6.0 6.0 6.0 6.0 6.0 5.9 5.9 5.9 6.1 6.2 6.3 6.5 6.4 6.4 6.5 6.5 6.6 6.8 6.9 6.9 6.9 6.7 6.7 6.3 6.1 6.0 5.8 5.6 5.2 5.1 5.6 6.1 5.8 5.9 6.1 6.0 6.1 6.1 6.2 6.4
5.9 6.0 6.0 6.0 6.1 6.2 6.2 6.1 6.1 5.9 5.8 5.8 5.9 6.0 6.0 5.8 6.0 6.0 6.2 6.5 6.6 6.7 6.8 6.8 6.9 6.9 6.6 6.3 6.0 5.8 5.7 5.4 5.7 5.9 5.7 5.6 5.8 5.9 5.6 5.6 6.1 6.3 6.2 6.0 5.4
6.0 6.0 6.1 6.1 6.2 6.2 6.3 6.2 6.0 5.8 5.7 5.9 6.0 5.9 5.8 6.0 6.2 6.4 6.3 6.4 6.5 6.7 6.9 7.0 6.8 6.5 6.2 5.9 5.8 5.5 5.5 5.7 5.4 5.5 5.7 5.5 5.3 5.2 5.8 5.8 5.5 5.7 5.9 6.0 6.0
6.1 6.1 6.2 6.3 6.4 6.4 6.3 6.1 5.8 5.7 5.7 5.8 5.9 5.8 5.5 5.7 6.0 6.4 6.6 6.5 6.6 6.7 6.8 6.6 6.3 5.9 6.0 5.6 5.4 5.4 5.2 5.4 5.8 5.8 5.6 5.6 5.7 5.4 5.8 5.5 5.2 5.0 5.8 5.9 5.8
6.1 6.1 6.1 6.2 6.4 6.3 6.2 6.0 5.8 5.7 5.7 5.8 5.8 5.7 5.7 5.8 6.1 6.3 6.4 6.7 6.7 6.6 6.5 6.2 5.8 5.6 5.3 5.1 4.9 5.0 5.4 5.5 5.6 5.6 5.4 5.1 5.8 5.7 5.7 5.7 5.2 5.2 5.1 5.5 5.7
6.0 6.0 6.0 6.2 6.1 6.1 6.0 6.0 5.8 5.6 5.5 5.6 5.7 5.9 6.0 6.1 6.5 6.4 6.2 6.5 6.3 6.2 6.0 5.8 5.6 5.3 5.1 4.7 5.4 5.4 5.2 5.0 5.7 5.7 5.7 5.3 5.4 5.8 6.0 5.6 5.2 5.2 5.1 5.1 5.2
6.1 6.0 6.0 6.1 5.9 5.8 5.9 5.9 5.9 5.7 5.6 5.6 5.8 5.9 6.1 6.3 6.0 6.1 6.7 6.4 5.9 6.0 5.9 5.8 5.3 5.1 4.9 5.0 5.3 5.2 5.1 5.4 5.8 6.5 5.6 5.7 5.5 6.2 6.0 5.8 5.6 5.4 5.1 5.0 5.3
5.8 5.8 5.8 5.9 5.7 5.8 5.9 5.9 5.8 5.8 5.7 5.6 6.0 5.9 6.1 6.2 6.1 6.3 5.8 5.9 6.0 6.1 6.1 5.5 4.8 4.9 4.9 5.2 4.7 4.8 4.9 5.3 5.7 6.7 6.7 6.8 7.2 7.1 7.0 6.6 6.2 6.0 5.8 5.5 5.3
5.6 5.9 5.7 5.6 5.5 5.7 5.8 5.9 5.9 5.9 5.6 5.7 5.8 5.9 5.9 5.9 5.8 5.8 6.2 6.0 5.8 5.9 5.9 5.5 5.1 5.2 5.2 5.2 5.4 5.2 5.3 5.8 7.3 7.3 7.0 6.9 7.0 7.2 7.0 7.0 7.1 7.2 7.1 7.1 6.9
5.5 5.8 5.7 5.5 5.5 5.3 5.4 5.8 6.0 5.9 5.7 5.8 5.9 5.8 6.1 6.3 5.9 6.3 6.4 6.3 6.1 5.7 5.6 5.6 5.4 5.2 5.3 5.4 5.9 6.1 6.5 7.5 7.5 7.3 6.9 7.1 7.0 6.7 6.5 6.6 6.5 6.6 6.9 7.0 7.3
5.5 5.6 5.4 5.5 5.3 5.5 5.9 6.1 6.1 5.9 5.7 5.8 6.0 6.1 6.1 6.3 6.2 6.1 5.8 5.9 5.8 5.5 5.5 5.5 5.5 5.4 5.5 5.7 6.3 7.6 7.6 7.2 6.9 6.8 7.2 6.9 6.9 6.6 6.7 6.8 7.0 7.0 7.0 7.1 7.2
5.1 5.3 5.2 5.3 5.4 5.7 5.9 6.0 6.0 5.8 5.5 5.6 5.8 5.9 5.6 6.0 5.7 5.2 5.6 5.9 5.8 5.7 5.7 5.7 5.6 5.7 5.9 6.1 6.4 7.6 7.4 7.2 7.0 6.6 6.6 6.9 6.4 6.6 6.6 7.3 6.6 6.3 6.3 6.5 6.5
5.0 4.8 5.1 5.4 5.2 5.6 5.7 6.0 5.9 5.9 4.0 5.7 5.6 5.6 5.8 5.9 5.7 5.6 5.7 5.9 6.0 5.9 5.9 6.1 6.0 6.2 6.4 6.3 6.9 7.2 7.1 7.2 7.7 7.4 6.9 7.0 6.6 6.1 6.7 6.8 6.3 6.4 6.1 6.1 6.8
5.2 5.1 5.3 5.4 5.6 5.6 5.8 5.9 5.9 6.0 5.3 5.9 5.8 5.6 5.5 5.7 5.5 5.7 5.8 6.0 6.3 6.2 6.2 6.2 6.0 5.9 6.4 6.9 7.3 6.9 7.9 8.0 7.8 7.3 6.0 6.7 6.5 5.8 5.6 5.4 5.7 5.9 6.0 6.0 6.5
5.4 5.5 5.8 5.7 5.7 5.7 5.9 6.0 6.0 6.2 5.9 5.7 5.6 5.7 5.7 5.6 5.7 5.6 5.6 5.8 5.5 5.4 6.2 6.4 6.1 5.8 6.2 7.5 7.7 7.3 7.1 5.2 6.0 5.8 5.6 6.8 6.5 5.8 5.9 5.8 5.5 5.4 5.4 5.3 5.8
5.5 5.5 5.6 5.4 5.5 5.8 6.1 6.3 6.4 5.9 5.9 5.8 5.7 5.5 5.8 5.4 5.4 5.6 5.5 5.9 5.5 5.5 5.6 5.7 6.1 6.3 6.7 6.7 6.9 6.8 6.3 6.0 5.2 4.5 6.3 7.0 6.3 6.3 6.0 6.0 5.8 5.5 5.2 5.2 5.5
5.7 5.8 5.7 5.6 5.9 6.1 6.1 6.2 6.2 5.9 5.8 5.8 5.7 5.5 5.3 5.4 5.3 5.3 5.2 5.3 5.3 5.3 5.6 5.6 6.2 6.5 6.7 7.0 6.9 6.9 6.8 6.5 6.2 6.6 6.3 6.7 6.6 6.3 6.0 6.2 6.1 5.8 5.5 5.2 5.2
6.2 6.0 6.1 6.0 6.2 6.1 6.1 6.2 6.2 6.1 6.0 5.8 5.6 5.6 5.6 5.5 5.4 5.4 5.3 5.1 5.1 5.1 5.3 5.4 5.8 6.7 7.0 7.1 7.2 6.9 6.8 6.8 6.3 5.1 5.6 6.6 6.1 5.8 6.5 6.6 6.2 5.9 5.8 5.4 5.2
6.2 6.3 6.2 6.1 6.2 5.8 6.0 6.0 6.1 6.0 6.0 5.9 5.8 5.6 5.6 5.5 5.5 5.4 5.3 5.3 5.1 5.1 5.2 5.2 5.2 7.0 6.8 6.8 6.5 7.0 6.4 6.6 6.1 6.4 6.3 6.5 6.5 5.7 6.0 6.3 6.4 6.0 5.7 5.6 5.2
6.2 6.2 6.3 6.3 6.2 6.1 6.0 6.0 6.2 6.2 6.2 6.2 6.0 5.8 5.6 5.4 5.5 5.2 5.3 5.1 5.0 5.0 5.1 5.2 5.1 5.7 6.9 7.1 6.7 6.5 6.6 6.2 5.8 6.3 6.1 6.3 6.8 6.2 6.2 6.5 6.5 6.5 6.2 5.6 5.6
6.2 6.5 6.3 6.1 6.1 6.2 6.4 6.0 6.1 6.2 6.1 6.1 6.2 5.9 5.7 5.5 5.4 5.3 5.2 5.3 5.2 5.1 5.3 5.1 4.5 5.0 6.2 6.6 6.7 6.7 6.8 6.2 6.2 6.1 6.1 5.8 6.5 6.0 6.3 6.5 6.8 6.6 6.4 5.9 5.9
6.3 6.4 6.4 6.3 6.1 6.2 6.3 6.5 6.2 6.1 6.3 6.2 6.2 6.0 5.7 5.7 5.6 5.4 5.1 5.0 5.2 5.3 5.2 5.1 5.2 5.3 5.6 6.3 6.1 6.5 6.9 6.5 6.0 5.9 6.0 6.2 6.5 6.7 6.6 6.5 6.4 6.6 6.5 6.2 6.1
6.3 6.4 6.5 6.5 6.3 6.4 6.3 6.5 6.4 5.9 6.3 6.1 6.2 6.1 5.7 5.5 5.4 5.6 5.4 5.1 5.2 5.3 5.2 4.9 5.2 5.4 6.0 6.3 6.4 6.7 6.9 6.7 6.4 6.4 5.8 6.3 6.4 6.5 6.5 6.5 6.3 6.4 6.4 6.3 6.2
6.5 6.5 6.6 6.5 6.6 6.9 6.8 6.6 6.1 6.0 5.7 6.0 6.0 6.2 6.0 5.6 5.4 5.2 5.3 5.0 5.2 5.3 5.3 5.3 5.1 5.4 6.5 6.4 6.4 6.9 6.8 7.0 7.0 6.8 6.6 6.3 6.4 6.5 6.6 6.5 6.3 6.3 6.3 6.3 6.3
6.5 6.3 6.5 6.8 7.0 7.3 7.5 6.9 6.5 5.8 5.7 5.8 5.8 6.1 6.0 5.8 5.6 5.5 5.5 5.3 5.0 5.0 5.2 5.1 5.2 5.1 6.2 6.1 6.7 7.1 7.1 7.2 7.0 6.8 6.7 6.5 6.5 6.6 6.5 6.4 6.5 6.4 6.3 6.3 6.3
Wind_Speed
22 22 22 22 21 21 21 20 16 12 12 10 11 11 10 11 4 10 13 11 14 22 22 10 9 10 3 2 4 4 3 2 4 6 5 7 8 6 5 7 6 7 6 5 4
23 23 23 22 21 21 21 19 14 11 12 11 12 12 11 9 0 12 15 20 22 22 10 9 9 12 5 3 4 3 2 2 2 2 4 3 6 6 6 7 7 9 7 11 12
23 23 23 22 21 21 21 18 13 11 11 12 11 12 12 7 4 5 22 24 25 20 7 5 7 5 4 2 3 4 2 6 2 6 7 8 2 4 6 3 1 9 17 11 7
24 24 23 23 21 21 22 16 13 12 11 12 12 11 13 3 3 5 23 25 20 20 8 6 7 5 5 5 5 4 4 6 5 8 7 6 8 7 5 6 8 10 10 10 4
25 25 25 24 22 22 22 14 12 11 9 11 13 14 4 6 3 9 21 23 9 8 10 7 7 5 4 5 8 2 5 8 10 11 10 8 7 7 9 10 10 11 11 10 9
25 25 24 23 22 22 20 12 10 10 10 13 15 9 4 7 9 13 18 12 7 6 8 8 5 4 2 3 3 5 6 8 8 10 8 11 10 3 4 7 10 13 13 10 10
24 26 27 25 23 22 19 12 10 9 11 12 13 5 7 3 4 14 13 7 6 3 3 4 4 5 5 6 5 7 6 8 8 4 4 5 5 6 9 9 6 8 8 9 8
23 25 27 26 24 22 22 15 10 10 12 11 11 2 3 1 11 9 11 7 8 1 2 2 3 1 1 3 7 3 2 5 7 8 5 3 12 8 9 7 9 9 8 8 8
23 25 27 26 24 25 26 17 10 11 13 14 5 2 3 4 9 8 9 9 8 0 1 2 1 1 5 2 5 6 3 9 9 9 6 5 18 8 12 10 14 13 10 11 14
24 26 27 26 23 26 29 5 7 10 4 3 3 5 6 7 7 8 10 6 4 3 2 1 1 3 4 6 2 6 6 7 7 6 16 15 19 10 9 7 7 11 12 12 13
22 24 26 23 21 26 14 3 5 6 10 5 1 3 4 9 4 12 9 8 6 4 5 1 6 4 5 4 6 7 4 7 13 16 10 6 15 17 11 11 14 14 15 16 17
21 23 25 21 18 16 9 5 2 2 3 4 3 3 2 5 5 15 10 7 6 5 9 6 4 6 7 8 7 6 9 12 10 3 12 11 10 8 9 10 12 13 15 16 18
19 21 26 24 11 5 9 5 4 3 3 1 1 2 5 3 4 9 7 6 5 8 6 2 3 5 7 7 8 6 7 6 9 12 11 5 1 4 9 7 14 15 14 14 17
18 20 25 28 5 4 4 6 4 2 4 8 6 4 5 2 2 3 6 2 6 6 7 2 4 5 7 3 3 8 5 16 18 4 3 3 4 5 12 9 15 15 16 18 17
17 16 23 8 2 3 5 7 3 2 3 4 4 4 5 6 4 9 5 6 4 5 1 5 5 7 5 5 5 9 17 18 14 5 1 1 3 4 9 15 21 19 19 18 17
16 13 16 5 2 1 5 5 3 5 3 4 4 6 5 5 3 6 7 7 3 5 3 5 6 1 5 7 4 8 14 9 3 3 3 4 1 3 9 16 18 20 20 19 18
16 11 8 4 1 4 4 3 4 6 4 5 4 5 3 5 6 7 3 9 4 7 7 7 6 2 4 6 5 12 7 5 6 5 2 4 3 0 9 11 11 17 17 16 16
13 13 3 1 2 1 2 5 7 2 2 2 3 6 2 6 4 7 4 5 8 5 2 4 8 7 8 2 4 5 3 2 4 2 3 5 6 2 6 7 10 13 14 15 17
14 2 0 1 0 2 4 6 6 5 3 5 5 3 2 3 3 6 3 2 1 1 4 4 5 6 4 5 3 7 4 5 3 3 2 1 3 3 10 10 13 15 16 16 15
2 3 2 0 4 3 5 4 4 2 0 0 1 3 3 5 3 5 2 3 2 2 3 1 6 4 7 6 5 3 5 5 3 5 5 2 2 6 19 18 15 16 15 16 15
2 3 2 3 3 5 3 3 3 3 2 1 2 1 2 1 3 1 4 3 1 2 2 0 2 7 3 2 2 4 4 4 0 2 3 4 3 5 10 10 12 12 12 12 12
2 2 2 2 4 1 2 1 2 3 1 1 1 1 1 2 1 1 3 6 3 1 1 2 2 5 6 11 7 3 3 3 3 6 3 3 3 1 5 5 8 10 11 11 9
1 2 2 3 2 1 1 2 1 2 3 3 3 2 1 2 2 3 3 4 6 2 4 2 2 5 9 6 6 3 3 3 3 2 2 1 4 3 4 5 7 9 9 10 11
1 2 3 3 1 3 2 2 2 1 1 2 1 2 1 2 4 2 2 3 6 3 5 1 2 7 5 7 1 5 9 6 3 2 2 3 5 6 8 8 8 8 8 8 9
2 3 3 1 2 2 3 1 2 3 1 3 2 5 5 1 3 3 2 3 3 4 3 4 3 4 8 17 14 16 14 6 5 6 2 4 3 6 6 2 5 4 6 7 8
4 3 1 2 1 4 1 4 4 1 6 4 4 3 7 5 7 6 4 3 5 1 2 3 2 3 5 5 1 8 9 7 5 5 6 6 5 3 2 3 3 5 4 6 7
2 3 3 3 3 4 5 5 5 6 2 4 6 2 4 8 5 4 5 4 5 6 3 2 1 4 5 7 7 4 5 4 2 4 3 4 3 3 3 3 1 3 4 4 4
Wind_Direction
19 15 12 10 9 5 2 360 0 7 13 1 345 350 352 359 30 43 39 351 348 342 338 326 335 336 329 351 354 20 55 259 324 10 309 22 14 15 305 10 327 360 3 120 4
16 13 10 7 5 3 0 360 6 6 5 3 350 349 347 351 311 53 3 354 344 339 339 340 326 337 3 22 10 73 130 211 358 353 332 3 15 337 8 358 324 340 345 6 1
15 11 8 5 3 1 0 1 5 3 354 1 4 359 355 346 61 349 355 354 350 4 330 304 335 348 20 24 32 346 211 322 1 7 16 338 28 337 0 336 100 306 306 323 10
12 9 6 3 1 359 358 358 359 359 359 0 5 1 339 11 63 322 353 354 0 354 353 3 354 25 16 10 1 350 290 328 324 344 346 320 301 307 229 243 260 267 278 300 355
11 8 4 1 358 356 354 355 358 0 358 353 351 338 6 46 29 335 348 357 4 7 3 2 28 19 13 342 341 282 329 326 327 316 299 279 264 256 274 268 274 274 275 276 281
8 5 2 359 357 354 355 354 356 5 349 335 343 5 62 70 281 353 353 347 356 20 2 33 2 324 318 298 343 305 333 298 294 278 270 278 284 204 249 277 282 267 269 265 258
6 3 358 356 355 353 354 352 341 339 338 328 341 352 68 160 343 352 13 340 332 10 20 10 355 43 336 333 319 282 308 314 292 319 247 353 295 254 279 291 301 307 275 281 273
5 2 357 353 350 349 345 343 334 321 319 318 326 23 81 219 11 353 359 329 327 97 47 1 22 313 212 306 334 284 37 355 307 344 311 344 289 285 269 285 289 295 293 283 266
3 1 357 351 347 340 337 320 310 315 307 314 12 115 16 348 358 330 25 325 302 283 177 294 15 50 359 0 357 20 316 314 318 328 301 32 298 297 292 267 275 273 281 285 268
1 357 356 351 345 339 337 299 312 340 333 308 20 46 25 320 307 345 335 336 276 296 286 252 37 46 18 47 313 289 300 275 267 291 305 298 287 302 305 304 358 10 345 335 321
358 353 353 351 343 345 348 19 17 359 32 93 86 70 347 300 324 354 333 337 352 67 17 106 59 32 329 318 282 280 277 281 291 295 308 283 297 310 340 45 9 356 343 333 318
354 350 347 348 338 355 16 66 76 231 67 60 31 84 320 323 347 348 8 43 15 17 6 18 63 322 328 347 338 3 306 299 294 320 332 313 310 85 37 41 15 345 338 329 318
348 346 343 344 327 53 82 62 325 1 120 2 95 38 290 23 15 337 18 344 20 10 354 146 281 2 16 338 344 315 261 272 275 314 287 352 292 34 354 11 355 347 337 330 318
339 345 346 343 44 352 56 342 351 11 80 328 352 356 333 61 68 32 359 30 13 353 337 293 319 10 343 306 2 307 247 298 292 318 257 74 289 40 336 333 353 346 341 335 327
332 341 349 22 269 48 303 332 335 47 32 345 342 301 338 78 301 347 24 25 72 301 26 271 313 342 342 245 314 257 302 293 289 202 260 257 272 304 350 342 343 348 341 339 334
328 337 351 17 51 281 327 340 45 41 287 347 19 357 10 28 20 342 12 10 98 2 326 266 282 169 220 283 292 308 313 327 60 101 53 278 277 353 358 331 337 341 341 340 338
324 328 338 312 296 338 0 39 34 94 346 336 334 347 359 341 358 19 74 37 59 23 0 328 320 317 350 334 327 352 356 353 0 7 229 347 47 198 344 345 339 334 336 338 345
337 321 292 210 345 31 71 58 69 268 286 355 323 320 72 14 359 5 22 25 30 56 31 31 337 9 338 7 275 324 77 106 295 301 303 335 345 172 27 329 335 339 342 351 358
331 2 313 231 66 78 71 55 192 215 256 342 324 44 357 4 45 30 48 87 70 49 111 23 276 321 272 319 19 316 22 208 256 224 296 85 341 234 356 351 359 355 353 359 3
8 7 288 53 131 76 66 157 174 122 96 274 74 47 329 337 37 46 352 288 94 164 143 248 297 251 299 357 355 72 326 20 8 3 331 328 74 320 341 343 354 0 354 354 2
40 14 254 9 77 43 108 184 121 97 86 100 211 300 7 294 128 312 250 282 86 336 133 128 118 290 324 38 265 347 10 359 223 299 327 317 309 1 329 336 347 353 352 355 1
43 349 295 30 43 62 108 120 348 149 133 170 261 236 184 130 117 233 234 204 170 122 132 292 175 279 260 293 289 27 115 68 84 304 283 266 291 352 304 325 355 354 349 357 6
16 268 350 79 91 8 273 86 315 148 198 188 242 203 137 185 27 204 263 162 154 118 155 256 325 321 347 355 9 28 352 45 247 216 250 47 306 125 355 352 2 356 357 7 10
62 345 330 47 144 115 151 236 215 59 193 163 208 81 248 273 194 250 292 189 168 138 130 117 236 176 207 221 125 314 300 309 298 262 283 240 277 325 343 2 355 353 2 18 17
119 249 162 316 350 96 85 205 197 242 230 151 282 208 183 202 346 225 233 346 98 126 76 109 221 192 254 263 266 263 271 270 175 237 241 253 277 309 325 343 311 302 354 22 25
157 151 43 165 159 101 172 228 209 153 152 230 193 222 186 185 191 211 132 201 216 133 99 356 268 347 292 288 121 281 263 258 236 232 253 269 265 269 67 115 356 342 15 14 20
340 343 95 187 168 130 206 195 196 146 224 195 202 194 222 236 220 211 193 200 186 154 168 151 63 13 274 327 318 359 239 202 218 224 191 221 181 292 312 312 306 298 358 9 16